Hourly Data Report for September 24, 2017

All times are specified in Local Standard Time (LST). Add 1 hour to adjust for Daylight Saving Time where and when it is observed.

SUSSEX FOUR CORNERS
NEW BRUNSWICK

45°44'30.048" N
65°31'44.039" W
47.00 m
8105210
71656
ASF

Download Data

Hourly Data (September 2017)
Hourly Data Report for September 24, 2017
Temp Definition
°C
Dew Point Temp Definition
°C
Rel Hum Definition
%
Wind Dir Definition
10's deg

Wind Spd Definition
km/h
Visibility Definition
km
Stn Press Definition
kPa
Hmdx Definition


Wind Chill Definition


Weather Definition


TIME
00:00 16.3 11.3 72 4 14   100.94     LegendNANA
01:00 15.1 10.6 75 4 11   100.96     LegendNANA
02:00 13.9 10.4 80 6 5   100.95     LegendNANA
03:00 12.7 10.1 84 1 6   100.97     LegendNANA
04:00 12.0 9.9 87 36 3   101.04     LegendNANA
05:00 11.2 9.6 90 16 5   101.01     LegendNANA
06:00 10.8 9.7 93   0   101.02     LegendNANA
07:00 11.1 10.1 93   0   101.06     LegendNANA
08:00 13.7 11.2 85 0 1   101.06     LegendNANA
09:00 16.9 13.0 78 29 4   100.95     LegendNANA
10:00 21.0 15.3 70 23 7   100.97 25   LegendNANA
11:00 23.7 17.0 66 23 18   100.91 29   LegendNANA
12:00 24.8 17.0 62 23 18   100.84 30   LegendNANA
13:00 25.7 17.6 61 22 23   100.78 31   LegendNANA
14:00 27.8 18.4 57 19 18   100.76 34   LegendNANA
15:00 27.6 18.8 59 22 17   100.71 34   LegendNANA
16:00 27.1 19.2 62 22 16   100.70 34   LegendNANA
17:00 25.4 18.8 67 22 14   100.72 32   LegendNANA
18:00 23.0 17.7 72 23 13   100.79 29   LegendNANA
19:00 21.7 16.8 74 23 6   100.86 27   LegendNANA
20:00 20.1 16.3 79 23 8   100.92 25   LegendNANA
21:00 19.5 16.3 82 30 7   100.95     LegendNANA
22:00 19.3 16.5 84 4 12   100.99     LegendNANA
23:00 18.1 15.6 85 4 10   101.03     LegendNANA

Notes on Data Quality.

Legend

  • E = Estimated
  • M = Missing
  • NA = Not Available
  • ‡ = Partner data that is not subject to review by the National Climate Archives
Date modified: